EWG2481 EGPH-EDDS

Flight info

Callsign EWG2481
Flight time 1h 47m
Altitude 37000
Route TLA Y96 HAVEN DCT OTBUN DCT ERKIT N110 DOLAS DCT NAVPI DCT DODEN DCT TABUM DCT FOLWU DCT UBENO N850 KRH T128 BADSO BADSO2A
Aircraft A319/M-SDE3FGHIRWY/LB1

Departure

Time 2026-05-06 14:21
Airport Edinburgh Airport (EGPH)

Arrival

Time 2026-05-06 16:09
Airport Stuttgart Airport (EDDS)
Time Latitude Longitude Altitude Speed Heading
2026-05-06 13:55 55.94901 -3.36490 109 ft 0 kts 146°
2026-05-06 14:12 55.94915 -3.36505 107 ft 4 kts 156°
2026-05-06 14:13 55.94940 -3.36518 107 ft 4 kts 177°
2026-05-06 14:13 55.94967 -3.36514 110 ft 4 kts 206°
2026-05-06 14:13 55.94981 -3.36494 110 ft 0 kts 238°
2026-05-06 14:16 55.94977 -3.36507 109 ft 3 kts 239°
2026-05-06 14:16 55.94961 -3.36555 110 ft 6 kts 239°
2026-05-06 14:16 55.94938 -3.36626 110 ft 7 kts 239°
2026-05-06 14:17 55.94908 -3.36716 110 ft 10 kts 239°
2026-05-06 14:17 55.94920 -3.36830 109 ft 11 kts 307°
2026-05-06 14:17 55.94900 -3.36970 108 ft 14 kts 238°
2026-05-06 14:17 55.94848 -3.37121 109 ft 15 kts 239°
2026-05-06 14:18 55.94792 -3.37290 110 ft 16 kts 239°
2026-05-06 14:18 55.94737 -3.37452 114 ft 15 kts 239°
2026-05-06 14:18 55.94681 -3.37617 116 ft 16 kts 238°
2026-05-06 14:18 55.94625 -3.37782 116 ft 17 kts 239°
2026-05-06 14:19 55.94560 -3.37973 113 ft 19 kts 238°
2026-05-06 14:19 55.94486 -3.38187 114 ft 22 kts 238°
2026-05-06 14:19 55.94409 -3.38415 116 ft 22 kts 239°
2026-05-06 14:19 55.94331 -3.38646 120 ft 21 kts 239°
2026-05-06 14:20 55.94280 -3.38834 123 ft 13 kts 275°
2026-05-06 14:20 55.94347 -3.38934 123 ft 14 kts 328°
2026-05-06 14:20 55.94435 -3.38906 122 ft 16 kts 57°
2026-05-06 14:20 55.94555 -3.38556 117 ft 61 kts 59°
2026-05-06 14:21 55.94884 -3.37592 115 ft 120 kts 58°
2026-05-06 14:21 55.95412 -3.36072 297 ft 155 kts 58°
2026-05-06 14:21 55.96004 -3.34456 992 ft 158 kts 53°
2026-05-06 14:21 55.96810 -3.33062 1663 ft 165 kts 44°
2026-05-06 14:22 55.97714 -3.31606 2033 ft 186 kts 44°
2026-05-06 14:22 55.98714 -3.29978 2349 ft 209 kts 44°
2026-05-06 14:22 55.99857 -3.28115 2771 ft 231 kts 44°
2026-05-06 14:22 56.01107 -3.26082 3259 ft 254 kts 43°
2026-05-06 14:23 56.02426 -3.23945 4096 ft 263 kts 43°
2026-05-06 14:23 56.03798 -3.21725 5076 ft 269 kts 43°
2026-05-06 14:23 56.04948 -3.19062 5768 ft 277 kts 67°
2026-05-06 14:23 56.05219 -3.15677 5962 ft 276 kts 94°
2026-05-06 14:24 56.05014 -3.12273 5997 ft 275 kts 101°
2026-05-06 14:24 56.04293 -3.09148 6001 ft 272 kts 125°
2026-05-06 14:24 56.03002 -3.06706 6002 ft 271 kts 144°
2026-05-06 14:24 56.01482 -3.04718 5999 ft 271 kts 145°
2026-05-06 14:25 55.99994 -3.02710 5998 ft 271 kts 144°
2026-05-06 14:25 55.98446 -3.00776 5998 ft 271 kts 150°
2026-05-06 14:25 55.96719 -2.99502 5994 ft 269 kts 171°
2026-05-06 14:25 55.94882 -2.99655 5995 ft 265 kts 199°
2026-05-06 14:26 55.93186 -3.00936 6002 ft 265 kts 206°
2026-05-06 14:26 55.91509 -3.02294 5998 ft 265 kts 206°
2026-05-06 14:26 55.89828 -3.03649 5999 ft 265 kts 205°
2026-05-06 14:26 55.88143 -3.05001 5998 ft 265 kts 205°
2026-05-06 14:27 55.86465 -3.06342 5996 ft 265 kts 205°
2026-05-06 14:27 55.84782 -3.07683 5999 ft 265 kts 205°
2026-05-06 14:27 55.83099 -3.09024 6000 ft 265 kts 205°
2026-05-06 14:27 55.81414 -3.10367 5999 ft 265 kts 205°
2026-05-06 14:28 55.79732 -3.11708 5993 ft 265 kts 205°
2026-05-06 14:28 55.78049 -3.13048 5997 ft 265 kts 205°
2026-05-06 14:28 55.76363 -3.14389 5993 ft 265 kts 205°
2026-05-06 14:28 55.74675 -3.15728 5994 ft 265 kts 205°
2026-05-06 14:29 55.73011 -3.17049 5990 ft 266 kts 205°
2026-05-06 14:29 55.71325 -3.18394 5984 ft 266 kts 205°
2026-05-06 14:29 55.69639 -3.19737 5987 ft 266 kts 205°
2026-05-06 14:29 55.67953 -3.21073 5981 ft 265 kts 205°
2026-05-06 14:30 55.66268 -3.22406 5979 ft 265 kts 205°
2026-05-06 14:30 55.64582 -3.23739 5976 ft 266 kts 205°
2026-05-06 14:30 55.62890 -3.25079 5970 ft 265 kts 205°
2026-05-06 14:30 55.61206 -3.26408 5978 ft 266 kts 204°
2026-05-06 14:31 55.59516 -3.27738 5972 ft 266 kts 204°
2026-05-06 14:31 55.57828 -3.29068 5976 ft 266 kts 204°
2026-05-06 14:31 55.56137 -3.30401 5972 ft 266 kts 204°
2026-05-06 14:31 55.54439 -3.31674 5966 ft 266 kts 198°
2026-05-06 14:32 55.52606 -3.31961 5975 ft 267 kts 172°
2026-05-06 14:32 55.50872 -3.30863 5975 ft 268 kts 147°
2026-05-06 14:32 55.49553 -3.28498 6523 ft 275 kts 121°
2026-05-06 14:32 55.48875 -3.25352 7429 ft 277 kts 101°
2026-05-06 14:33 55.48502 -3.21995 8324 ft 281 kts 101°
2026-05-06 14:33 55.48139 -3.18578 9197 ft 286 kts 101°
2026-05-06 14:33 55.47772 -3.15101 10029 ft 291 kts 101°
2026-05-06 14:33 55.47392 -3.11531 10467 ft 310 kts 101°
2026-05-06 14:34 55.46979 -3.07652 10702 ft 334 kts 101°
2026-05-06 14:34 55.46534 -3.03490 10887 ft 357 kts 101°
2026-05-06 14:34 55.45827 -2.99213 11333 ft 368 kts 112°
2026-05-06 14:34 55.44688 -2.95143 11977 ft 373 kts 120°
2026-05-06 14:35 55.43409 -2.91136 12650 ft 377 kts 120°
2026-05-06 14:35 55.42116 -2.87084 13302 ft 382 kts 120°
2026-05-06 14:35 55.40804 -2.82973 13935 ft 387 kts 120°
2026-05-06 14:35 55.39477 -2.78815 14514 ft 392 kts 120°
2026-05-06 14:36 55.38138 -2.74619 15104 ft 396 kts 120°
2026-05-06 14:36 55.36783 -2.70381 15697 ft 400 kts 120°
2026-05-06 14:36 55.35411 -2.66101 16293 ft 404 kts 120°
2026-05-06 14:36 55.34022 -2.61779 16886 ft 408 kts 120°
2026-05-06 14:37 55.32615 -2.57419 17483 ft 412 kts 121°
2026-05-06 14:37 55.31191 -2.53024 18077 ft 417 kts 121°
2026-05-06 14:37 55.29747 -2.48583 18620 ft 421 kts 122°
2026-05-06 14:37 55.28057 -2.44363 19117 ft 423 kts 131°
2026-05-06 14:38 55.26003 -2.40668 19616 ft 424 kts 141°
2026-05-06 14:38 55.23669 -2.37472 20126 ft 426 kts 145°
2026-05-06 14:38 55.21298 -2.34333 20623 ft 429 kts 145°
2026-05-06 14:38 55.18905 -2.31169 21106 ft 432 kts 145°
2026-05-06 14:39 55.16529 -2.28031 21570 ft 435 kts 145°
2026-05-06 14:39 55.14071 -2.24786 22036 ft 438 kts 145°
2026-05-06 14:39 55.11633 -2.21570 22468 ft 441 kts 145°
2026-05-06 14:39 55.09210 -2.18374 22916 ft 444 kts 145°
2026-05-06 14:40 55.06739 -2.15115 23353 ft 446 kts 145°
2026-05-06 14:40 55.04260 -2.11849 23781 ft 449 kts 145°
2026-05-06 14:40 55.01756 -2.08559 24149 ft 451 kts 145°
2026-05-06 14:40 54.99238 -2.05260 24528 ft 453 kts 145°
2026-05-06 14:41 54.96707 -2.01955 24901 ft 455 kts 145°
2026-05-06 14:41 54.94170 -1.98647 25267 ft 457 kts 145°
2026-05-06 14:41 54.91620 -1.95320 25631 ft 459 kts 145°
2026-05-06 14:41 54.89061 -1.91983 25982 ft 461 kts 145°
2026-05-06 14:42 54.86490 -1.88637 26322 ft 463 kts 145°
2026-05-06 14:42 54.83904 -1.85282 26658 ft 465 kts 145°
2026-05-06 14:42 54.81305 -1.81914 26986 ft 467 kts 145°
2026-05-06 14:42 54.78693 -1.78534 27295 ft 469 kts 145°
2026-05-06 14:43 54.76075 -1.75149 27617 ft 471 kts 145°
2026-05-06 14:43 54.73442 -1.71751 27927 ft 473 kts 145°
2026-05-06 14:43 54.70797 -1.68346 28234 ft 475 kts 145°
2026-05-06 14:43 54.68143 -1.64942 28643 ft 474 kts 145°
2026-05-06 14:44 54.65496 -1.61554 29113 ft 473 kts 146°
2026-05-06 14:44 54.62859 -1.58182 29578 ft 471 kts 146°
2026-05-06 14:44 54.60227 -1.54813 30045 ft 470 kts 146°
2026-05-06 14:45 54.55011 -1.48153 30824 ft 468 kts 146°
2026-05-06 14:45 54.52386 -1.44821 31205 ft 468 kts 146°
2026-05-06 14:45 54.49760 -1.41495 31569 ft 467 kts 146°
2026-05-06 14:45 54.47142 -1.38184 31949 ft 467 kts 146°
2026-05-06 14:46 54.44533 -1.34880 32330 ft 466 kts 146°
2026-05-06 14:46 54.41920 -1.31568 32709 ft 466 kts 146°
2026-05-06 14:46 54.39311 -1.28270 33086 ft 465 kts 146°
2026-05-06 14:46 54.36708 -1.24991 33461 ft 464 kts 146°
2026-05-06 14:47 54.34103 -1.21711 33825 ft 464 kts 146°
2026-05-06 14:47 54.31500 -1.18437 34180 ft 464 kts 146°
2026-05-06 14:47 54.28900 -1.15175 34483 ft 463 kts 146°
2026-05-06 14:47 54.26297 -1.11920 34779 ft 463 kts 147°
2026-05-06 14:48 54.23697 -1.08674 35091 ft 463 kts 147°
2026-05-06 14:48 54.21090 -1.05420 35389 ft 463 kts 146°
2026-05-06 14:48 54.18486 -1.02176 35672 ft 463 kts 147°
2026-05-06 14:48 54.15888 -0.98944 35957 ft 463 kts 147°
2026-05-06 14:49 54.13284 -0.95710 36226 ft 463 kts 147°
2026-05-06 14:49 54.10714 -0.92527 36484 ft 463 kts 147°
2026-05-06 14:49 54.08105 -0.89301 36741 ft 463 kts 147°
2026-05-06 14:49 54.05499 -0.86083 36975 ft 463 kts 147°
2026-05-06 14:50 54.02887 -0.82867 37051 ft 463 kts 147°
2026-05-06 14:50 53.97633 -0.76579 37056 ft 461 kts 148°
2026-05-06 14:51 53.92323 -0.70420 37065 ft 461 kts 148°
2026-05-06 14:51 53.87028 -0.64289 37053 ft 461 kts 148°
2026-05-06 14:52 53.81737 -0.58138 37053 ft 461 kts 148°
2026-05-06 14:52 53.76451 -0.51996 37054 ft 461 kts 148°
2026-05-06 14:53 53.71158 -0.45875 37056 ft 461 kts 148°
2026-05-06 14:53 53.65866 -0.39753 37050 ft 461 kts 148°
2026-05-06 14:54 53.60572 -0.33650 37053 ft 461 kts 148°
2026-05-06 14:54 53.55869 -0.26281 37051 ft 467 kts 130°
2026-05-06 14:55 53.51963 -0.17551 37046 ft 467 kts 129°
2026-05-06 14:55 53.48052 -0.08846 37046 ft 466 kts 129°
2026-05-06 14:56 53.44155 -0.00210 37041 ft 466 kts 129°
2026-05-06 14:56 53.40229 0.08448 37032 ft 466 kts 129°
2026-05-06 14:57 53.36938 0.15681 37031 ft 466 kts 130°
2026-05-06 14:57 53.33004 0.24295 37031 ft 466 kts 130°
2026-05-06 14:58 53.29088 0.32840 37026 ft 466 kts 130°
2026-05-06 14:58 53.25141 0.41437 37025 ft 465 kts 130°
2026-05-06 14:59 53.21205 0.49993 37021 ft 465 kts 130°
2026-05-06 14:59 53.17263 0.58536 37013 ft 464 kts 130°
2026-05-06 15:00 53.13316 0.67046 37005 ft 464 kts 130°
2026-05-06 15:00 53.09365 0.75527 37008 ft 464 kts 130°
2026-05-06 15:01 53.05405 0.83997 36998 ft 464 kts 130°
2026-05-06 15:01 53.01445 0.92463 37004 ft 464 kts 130°
2026-05-06 15:02 52.97781 1.01212 36992 ft 467 kts 119°
2026-05-06 15:02 52.95364 1.11215 37001 ft 468 kts 112°
2026-05-06 15:03 52.93082 1.21327 36995 ft 468 kts 112°
2026-05-06 15:03 52.90780 1.31434 37000 ft 468 kts 112°
2026-05-06 15:04 52.88467 1.41533 36999 ft 468 kts 112°
2026-05-06 15:04 52.86150 1.51602 37000 ft 468 kts 112°
2026-05-06 15:05 52.83839 1.61650 36997 ft 467 kts 112°
2026-05-06 15:05 52.81517 1.71687 37000 ft 467 kts 112°
2026-05-06 15:06 52.79200 1.81629 37000 ft 466 kts 112°
2026-05-06 15:06 52.76865 1.91609 36991 ft 465 kts 112°
2026-05-06 15:07 52.74524 2.01568 37000 ft 465 kts 112°
2026-05-06 15:07 52.72173 2.11515 36991 ft 464 kts 113°
2026-05-06 15:08 52.69818 2.21434 36991 ft 464 kts 113°
2026-05-06 15:08 52.67459 2.31335 36990 ft 464 kts 113°
2026-05-06 15:09 52.65094 2.41230 36981 ft 464 kts 113°
2026-05-06 15:09 52.62711 2.51120 36978 ft 464 kts 113°
2026-05-06 15:10 52.60329 2.60987 36973 ft 464 kts 113°
2026-05-06 15:10 52.57935 2.70861 36964 ft 464 kts 113°
2026-05-06 15:11 52.55548 2.80638 36962 ft 464 kts 113°
2026-05-06 15:11 52.52695 2.90124 36960 ft 463 kts 121°
2026-05-06 15:12 52.49591 2.99382 36959 ft 463 kts 121°
2026-05-06 15:12 52.46484 3.08646 36966 ft 463 kts 121°
2026-05-06 15:13 52.43371 3.17892 36957 ft 463 kts 121°
2026-05-06 15:13 52.40275 3.27046 36959 ft 462 kts 121°
2026-05-06 15:14 52.37155 3.36229 36945 ft 462 kts 121°
2026-05-06 15:14 52.34023 3.45410 36947 ft 462 kts 121°
2026-05-06 15:15 52.30887 3.54560 36941 ft 461 kts 121°
2026-05-06 15:15 52.27744 3.63710 36936 ft 461 kts 121°
2026-05-06 15:16 52.24612 3.72833 36934 ft 461 kts 121°
2026-05-06 15:16 52.21463 3.81957 36931 ft 461 kts 122°
2026-05-06 15:17 52.18307 3.91044 36926 ft 460 kts 122°
2026-05-06 15:17 52.15161 4.00071 36920 ft 460 kts 122°
2026-05-06 15:18 52.11999 4.09115 36909 ft 459 kts 122°
2026-05-06 15:18 52.08832 4.18126 36900 ft 458 kts 122°
2026-05-06 15:19 52.05665 4.27118 36894 ft 458 kts 122°
2026-05-06 15:19 52.02500 4.36089 36893 ft 457 kts 122°
2026-05-06 15:20 51.99331 4.45039 36893 ft 457 kts 122°
2026-05-06 15:20 51.96157 4.53984 36896 ft 457 kts 122°
2026-05-06 15:21 51.92972 4.62907 36893 ft 457 kts 122°
2026-05-06 15:21 51.89777 4.71809 36893 ft 457 kts 122°
2026-05-06 15:22 51.86572 4.80695 36893 ft 457 kts 122°
2026-05-06 15:22 51.83369 4.89560 36902 ft 457 kts 122°
2026-05-06 15:23 51.80162 4.98432 36903 ft 457 kts 122°
2026-05-06 15:23 51.76949 5.07286 36906 ft 457 kts 122°
2026-05-06 15:24 51.73723 5.16126 36910 ft 457 kts 123°
2026-05-06 15:24 51.70484 5.24942 36903 ft 457 kts 123°
2026-05-06 15:25 51.67267 5.33688 36893 ft 457 kts 123°
2026-05-06 15:25 51.64028 5.42494 36895 ft 457 kts 123°
2026-05-06 15:26 51.60786 5.51288 36894 ft 457 kts 123°
2026-05-06 15:26 51.57542 5.60016 36896 ft 457 kts 123°
2026-05-06 15:27 51.54248 5.68839 36897 ft 457 kts 123°
2026-05-06 15:27 51.50979 5.77586 36897 ft 457 kts 123°
2026-05-06 15:28 51.47706 5.86320 36896 ft 457 kts 123°
2026-05-06 15:28 51.44433 5.95038 36896 ft 457 kts 123°
2026-05-06 15:29 51.41144 6.03755 36900 ft 456 kts 124°
2026-05-06 15:29 51.37869 6.12396 36896 ft 456 kts 124°
2026-05-06 15:30 51.35313 6.19100 36882 ft 456 kts 124°
2026-05-06 15:30 51.32009 6.27761 36876 ft 456 kts 124°
2026-05-06 15:31 51.28709 6.36418 36874 ft 456 kts 124°
2026-05-06 15:31 51.25404 6.45058 36876 ft 456 kts 124°
2026-05-06 15:32 51.20421 6.57975 36874 ft 455 kts 124°
2026-05-06 15:32 51.17097 6.66564 36874 ft 455 kts 124°
2026-05-06 15:33 51.13916 6.74765 36872 ft 455 kts 124°
2026-05-06 15:33 51.10584 6.83330 36870 ft 455 kts 124°
2026-05-06 15:34 51.07261 6.91825 36861 ft 455 kts 124°
2026-05-06 15:34 51.03909 7.00380 36856 ft 455 kts 125°
2026-05-06 15:35 51.00548 7.08923 36856 ft 456 kts 125°
2026-05-06 15:35 50.97192 7.17450 36859 ft 456 kts 125°
2026-05-06 15:36 50.93824 7.25966 36858 ft 455 kts 125°
2026-05-06 15:36 50.90447 7.34454 36854 ft 455 kts 125°
2026-05-06 15:37 50.87067 7.42933 36850 ft 455 kts 125°
2026-05-06 15:37 50.83686 7.51396 36840 ft 454 kts 126°
2026-05-06 15:38 50.80301 7.59825 36831 ft 454 kts 126°
2026-05-06 15:38 50.76915 7.68243 36812 ft 454 kts 126°
2026-05-06 15:39 50.73522 7.76648 36812 ft 453 kts 126°
2026-05-06 15:39 50.70128 7.85031 36809 ft 453 kts 126°
2026-05-06 15:40 50.66731 7.93395 36809 ft 453 kts 126°
2026-05-06 15:40 50.63326 8.01742 36809 ft 453 kts 126°
2026-05-06 15:41 50.60216 8.08305 36802 ft 447 kts 137°
2026-05-06 15:41 50.54520 8.15077 36800 ft 441 kts 151°
2026-05-06 15:42 50.49354 8.20249 36792 ft 440 kts 150°
2026-05-06 15:42 50.45027 8.24583 36789 ft 440 kts 150°
2026-05-06 15:43 50.39862 8.29753 36785 ft 440 kts 150°
2026-05-06 15:43 50.34701 8.34909 36786 ft 440 kts 150°
2026-05-06 15:44 50.29541 8.40039 36794 ft 439 kts 150°
2026-05-06 15:44 50.24376 8.45141 36795 ft 439 kts 151°
2026-05-06 15:45 50.19206 8.50216 36809 ft 439 kts 151°
2026-05-06 15:45 50.14034 8.55268 36803 ft 438 kts 151°
2026-05-06 15:46 50.08858 8.60306 36798 ft 438 kts 152°
2026-05-06 15:46 50.03328 8.63843 36794 ft 431 kts 170°
2026-05-06 15:47 49.97406 8.65026 36795 ft 429 kts 176°
2026-05-06 15:47 49.91473 8.66019 36802 ft 429 kts 176°
2026-05-06 15:48 49.85514 8.67022 36229 ft 433 kts 176°
2026-05-06 15:48 49.82523 8.67522 35660 ft 433 kts 176°
2026-05-06 15:48 49.79529 8.68019 35088 ft 432 kts 176°
2026-05-06 15:49 49.76541 8.68517 34536 ft 430 kts 176°
2026-05-06 15:49 49.73565 8.68863 33988 ft 426 kts 182°
2026-05-06 15:49 49.70622 8.68584 33406 ft 423 kts 187°
2026-05-06 15:49 49.67690 8.68179 32793 ft 423 kts 186°
2026-05-06 15:50 49.64752 8.67776 32184 ft 424 kts 186°
2026-05-06 15:50 49.61811 8.67373 31593 ft 425 kts 186°
2026-05-06 15:50 49.58858 8.66974 31012 ft 427 kts 186°
2026-05-06 15:50 49.55892 8.66579 30443 ft 429 kts 186°
2026-05-06 15:51 49.52914 8.66184 29884 ft 430 kts 186°
2026-05-06 15:51 49.49926 8.65786 29227 ft 432 kts 186°
2026-05-06 15:51 49.46918 8.65385 28574 ft 434 kts 186°
2026-05-06 15:51 49.43894 8.64986 27937 ft 437 kts 185°
2026-05-06 15:52 49.40853 8.64586 27298 ft 440 kts 185°
2026-05-06 15:52 49.37798 8.64184 26689 ft 442 kts 185°
2026-05-06 15:52 49.34719 8.63777 26082 ft 445 kts 185°
2026-05-06 15:52 49.31659 8.63371 25492 ft 448 kts 185°
2026-05-06 15:53 49.28545 8.62922 24903 ft 451 kts 186°
2026-05-06 15:53 49.25413 8.62436 24324 ft 454 kts 186°
2026-05-06 15:53 49.22260 8.61927 23754 ft 455 kts 186°
2026-05-06 15:53 49.19121 8.61416 23156 ft 453 kts 186°
2026-05-06 15:54 49.15997 8.60916 22502 ft 449 kts 186°
2026-05-06 15:54 49.12903 8.60431 21867 ft 445 kts 186°
2026-05-06 15:54 49.09835 8.59966 21249 ft 441 kts 186°
2026-05-06 15:54 49.06794 8.59517 20649 ft 437 kts 185°
2026-05-06 15:55 49.03784 8.59073 20070 ft 434 kts 185°
2026-05-06 15:55 49.00786 8.58632 19497 ft 430 kts 185°
2026-05-06 15:55 48.97812 8.58576 18947 ft 427 kts 176°
2026-05-06 15:55 48.94857 8.58938 18412 ft 424 kts 175°
2026-05-06 15:56 48.91968 8.59420 17847 ft 413 kts 169°
2026-05-06 15:56 48.89294 8.60851 17262 ft 405 kts 153°
2026-05-06 15:56 48.87028 8.63318 16698 ft 399 kts 137°
2026-05-06 15:56 48.85336 8.66609 16149 ft 395 kts 121°
2026-05-06 15:57 48.84319 8.70450 15616 ft 391 kts 105°
2026-05-06 15:57 48.84025 8.74513 15098 ft 386 kts 89°
2026-05-06 15:57 48.84391 8.78523 14596 ft 381 kts 80°
2026-05-06 15:57 48.84895 8.82432 14110 ft 374 kts 80°
2026-05-06 15:58 48.85383 8.86277 13640 ft 368 kts 81°
2026-05-06 15:58 48.85858 8.90076 13122 ft 362 kts 80°
2026-05-06 15:58 48.86323 8.93808 12622 ft 357 kts 80°
2026-05-06 15:58 48.86783 8.97489 12126 ft 353 kts 80°
2026-05-06 15:59 48.87239 9.01122 11653 ft 348 kts 80°
2026-05-06 15:59 48.87691 9.04723 11174 ft 345 kts 80°
2026-05-06 15:59 48.88136 9.08293 10678 ft 342 kts 80°
2026-05-06 15:59 48.88575 9.11834 10189 ft 340 kts 79°
2026-05-06 16:00 48.89009 9.15344 9875 ft 333 kts 79°
2026-05-06 16:00 48.89427 9.18733 9819 ft 318 kts 79°
2026-05-06 16:00 48.89819 9.21935 9819 ft 297 kts 79°
2026-05-06 16:00 48.90183 9.24904 9824 ft 275 kts 79°
2026-05-06 16:01 48.90526 9.27697 9525 ft 266 kts 79°
2026-05-06 16:01 48.90714 9.30421 9132 ft 260 kts 93°
2026-05-06 16:01 48.90407 9.33088 8733 ft 253 kts 110°
2026-05-06 16:01 48.89654 9.35445 8343 ft 245 kts 126°
2026-05-06 16:02 48.88542 9.37372 7963 ft 241 kts 142°
2026-05-06 16:02 48.87231 9.38969 7593 ft 242 kts 144°
2026-05-06 16:02 48.85910 9.40578 7222 ft 244 kts 144°
2026-05-06 16:02 48.84589 9.42191 6858 ft 245 kts 144°
2026-05-06 16:03 48.83258 9.43817 6471 ft 244 kts 144°
2026-05-06 16:03 48.81935 9.45432 6110 ft 244 kts 144°
2026-05-06 16:03 48.80607 9.47049 5722 ft 245 kts 144°
2026-05-06 16:03 48.79274 9.48668 5334 ft 245 kts 144°
2026-05-06 16:04 48.77926 9.50246 4952 ft 243 kts 150°
2026-05-06 16:04 48.76356 9.50897 4605 ft 231 kts 187°
2026-05-06 16:04 48.74936 9.50158 4580 ft 206 kts 218°
2026-05-06 16:04 48.74020 9.48628 4459 ft 191 kts 244°
2026-05-06 16:05 48.73608 9.46807 4264 ft 183 kts 254°
2026-05-06 16:05 48.73270 9.44983 4028 ft 178 kts 255°
2026-05-06 16:05 48.72936 9.43186 3788 ft 176 kts 254°
2026-05-06 16:05 48.72603 9.41406 3552 ft 175 kts 254°
2026-05-06 16:06 48.72272 9.39638 3322 ft 173 kts 254°
2026-05-06 16:06 48.71944 9.37888 3092 ft 172 kts 254°
2026-05-06 16:06 48.71626 9.36197 2864 ft 159 kts 253°
2026-05-06 16:06 48.71337 9.34659 2651 ft 145 kts 253°
2026-05-06 16:07 48.71065 9.33210 2468 ft 140 kts 253°
2026-05-06 16:07 48.70800 9.31801 2269 ft 139 kts 253°
2026-05-06 16:07 48.70537 9.30408 2069 ft 137 kts 253°
2026-05-06 16:07 48.70271 9.29007 1885 ft 139 kts 254°
2026-05-06 16:08 48.70008 9.27600 1685 ft 139 kts 253°
2026-05-06 16:08 48.69740 9.26193 1500 ft 141 kts 252°
2026-05-06 16:08 48.69477 9.24790 1354 ft 138 kts 254°
2026-05-06 16:08 48.69229 9.23438 1287 ft 124 kts 250°
2026-05-06 16:09 48.69019 9.22363 1290 ft 82 kts 255°
2026-05-06 16:09 48.68937 9.21760 1287 ft 42 kts 282°
2026-05-06 16:09 48.68983 9.21498 1285 ft 9 kts 287°
2026-05-06 16:09 48.68989 9.21469 1285 ft 0 kts 285°
2026-05-06 16:10 48.68990 9.21465 1285 ft 1 kts 285°
2026-05-06 16:10 48.68995 9.21435 1289 ft 5 kts 284°
2026-05-06 16:11 48.69003 9.21363 1285 ft 9 kts 271°
2026-05-06 16:11 48.68984 9.21250 1287 ft 14 kts 253°
2026-05-06 16:11 48.68953 9.21087 1286 ft 18 kts 253°
2026-05-06 16:11 48.68919 9.20906 1285 ft 17 kts 254°
2026-05-06 16:12 48.68886 9.20736 1287 ft 17 kts 254°
2026-05-06 16:12 48.68852 9.20556 1287 ft 19 kts 254°
2026-05-06 16:12 48.68810 9.20338 1285 ft 25 kts 253°
2026-05-06 16:12 48.68764 9.20099 1285 ft 21 kts 254°
2026-05-06 16:13 48.68805 9.19932 1288 ft 18 kts 313°
2026-05-06 16:13 48.68885 9.19852 1285 ft 12 kts 301°
2026-05-06 16:13 48.68867 9.19715 1285 ft 13 kts 253°
2026-05-06 16:13 48.68888 9.19669 1286 ft 6 kts 346°
2026-05-06 16:14 48.68937 9.19647 1285 ft 7 kts 344°
2026-05-06 16:14 48.68941 9.19646 1285 ft 0 kts 344°